www.pogodaiklimat.ru

Погода и климат >> Архив погоды >> Турция >> Балыкесир


ПОГОДА в Балыкесире

  • Прогноз погоды в Балыкесире
  • Монитор погоды в Балыкесире

АРХИВ ПОГОДЫ в Балыкесире

Время (UTC), дата Ветер
(напр.,м/с)
 
Видим.   Явления Облачность Т
(С)
Тd
(С)
f
(%)
Тe
(С)
Тes
(С)
Комфортность P
(гПа)
Po
(гПа)
Тmin
(С)
Tmax
(С)
R
(мм)
R24
(мм)
S
(см)
18 12.06 С 4
{10}
10 км 3/3 1050 м
[Cu hum]
+25.7 +18.1 63 +30 +30 душно 1012.1 1000.4 +30.7
21 12.06 С 2
{7}
10 км 3/3 1050 м
[Cu hum]
+22.0 +18.4 80 +27 +27 душно 1012.9 1001.2
00 13.06 Ю 2
{7}
10 км 3/3 1050 м
[Cu hum]
+18.7 +17.3 92 +21 +21 комфорт 1013.2 1001.5
03 13.06 штиль 0
{2}
10 км 3/3 1050 м
[Cu hum]
+17.0 +16.5 97 +17 +17 1013.2 1001.4
06 13.06 штиль 0
{2}
10 км 1/1 1050 м
[Cu hum]
+23.2 +18.6 75 +29 +38 душно 1014.7 1003.0 +16.9
09 13.06 В 2
{6}
10 км 5/3 1050 м
[Cu hum Ci fib]
+29.2 +17.7 50 +34 +47 очень
душно
1014.4 1002.7
12 13.06 СВ 6
{10}
10 км 3/3 1050 м
[Cu hum]
+31.7 +15.9 39 +35 +40 очень
душно
1013.0 1001.3
15 13.06 С 6
{11}
10 км 3/3 1050 м
[Cu hum]
+31.9 +16.0 38 +35 +36 очень
душно
1012.9 1001.2
18 13.06 С 4
{11}
10 км ясно +26.9 +15.0 48 +30 +30 душно 1014.0 1002.3 +32.7
21 13.06 штиль 0
{5}
10 км ясно +23.0 +15.9 64 +27 +27 душно 1014.9 1003.2
00 14.06 штиль 0
{5}
10 км ясно +20.0 +16.6 81 +22 +22 комфорт 1014.3 1002.6
03 14.06 штиль 0
{3}
10 км ясно +17.6 +15.9 90 +18 +18 1014.7 1003.0
06 14.06 штиль 0
{3}
10 км 3/3 1050 м
[Cu hum]
+23.7 +17.0 66 +27 +35 жарко 1015.4 1003.7 +16.8
09 14.06 СВ 4
{7}
10 км 3/3 1050 м
[Cu hum]
+30.3 +13.6 36 +32 +42 жарко 1014.4 1002.8
12 14.06 С 7-12
{12}
10 км 4/4 1050 м
[Cu hum]
+30.7 +13.7 35 +32 +35 жарко 1013.4 1001.7
15 14.06 С 6
{14}
10 км 3/3 1050 м
[Cu hum]
+29.6 +14.9 41 +32 +33 душно 1012.3 1000.6
18 14.06 СВ 6
{14}
10 км 3/3 1050 м
[Cu hum]
+26.2 +15.6 52 +29 +29 жарко 1012.7 1001.0 +31.7
21 14.06 С 3
{8}
10 км 1/1 1050 м
[Cu hum]
+23.3 +16.2 64 +28 +28 душно 1013.2 1001.6
00 15.06 С 4
{8}
10 км 3/3 1050 м
[Cu hum]
+21.2 +17.9 81 +25 +25 комфорт 1011.8 1000.2
03 15.06 В 1
{5}
10 км 3/3 1050 м
[Cu hum]
+19.5 +18.3 93 +23 +23 комфорт 1011.8 1000.1
06 15.06 штиль 0
{5}
10 км 9/9 450 м
[Cu med, cong]
+24.2 +19.7 76 +29 +30 душно 1011.4 999.7 +19.5
09 15.06 С 5
{9}
10 км 5/5 1050 м
[Cu med, cong]
+26.6 +18.3 60 +31 +36 душно 1010.8 999.1
12 15.06 С 8-13
{13}
10 км 4/4 1050 м
[Cu med, cong]
+29.2 +18.0 51 +34 +35 очень
душно
1009.1 997.5
15 15.06 С 9
{13}
10 км 6/3 1050 м
[Cu hum Ci fib]
+28.0 +16.9 51 +32 +32 душно 1008.5 996.8
18 15.06 С 8
{14}
10 км 5/3 1050 м
[Cu hum Ci fib]
+25.0 +18.2 66 +29 +29 душно 1010.0 998.3 +30.0
21 15.06 С 5
{11}
10 км 5/3 1050 м
[Cu hum Ci fib]
+23.6 +18.2 72 +28 +28 душно 1010.8 999.1
00 16.06 С 3
{11}
10 км 6/4 1050 м
[Cu hum Ci fib]
+23.0 +19.5 81 +30 +30 очень
душно
1010.5 998.9
03 16.06 С 2
{5}
10 км 4/4 1050 м
[Cu hum]
+22.0 +19.2 84 +27 +27 душно 1010.1 998.4
06 16.06 С 6
{8}
10 км 5/5 1050 м
[Cu hum]
+25.6 +19.2 68 +31 +33 очень
душно
1010.4 998.8 +21.9
09 16.06 С 6
{10}
10 км 4/4 1050 м
[Cu hum]
+28.0 +17.6 53 +32 +37 душно 1010.8 999.2
12 16.06 С 7
{11}
10 км 6/4 1050 м
[Cu hum Ci fib]
+28.9 +17.0 49 +33 +35 очень
душно
1009.3 997.7
15 16.06 С 8
{14}
10 км 4/4 1050 м
[Cu hum]
+27.6 +18.3 57 +32 +33 очень
душно
1008.6 997.0
18 16.06 С 6
{14}
10 км 4/4 1050 м
[Cu hum]
+25.5 +19.1 68 +31 +31 очень
душно
1009.5 997.9 +30.2
21 16.06 С 2
{8}
10 км 4/4 1050 м
[Cu hum]
+23.9 +18.2 70 +28 +28 душно 1010.1 998.5
00 17.06 СЗ 3
{8}
10 км 6/4 1050 м
[Cu hum Ac trans]
+22.1 +18.4 80 +27 +27 душно 1009.5 997.9
03 17.06 штиль 0
{5}
10 км 6/4 1050 м
[Cu hum Ac trans]
+21.0 +19.7 92 +26 +26 душно 1009.7 998.0
06 17.06 штиль 0
{5}
10 км в посл. час ливневой дождь 5/3 1050 м
[Cu hum Ac trans]
+22.8 +21.7 94 +31 +36 очень
душно
1010.7 999.0 +20.3 1
09 17.06 С 7
{11}
10 км 8/5 1050 м
[Cu med, cong Ci fib]
+28.0 +19.8 61 +34 +37 очень
душно
1009.9 998.3
12 17.06 С 7
{11}
10 км 5/5 1050 м
[Cu med, cong]
+30.7 +18.8 49 +36 +38 очень
душно
1008.6 997.0
15 17.06 ЮЗ 2
{12}
10 км 8/8 900 м
[Cu med, cong]
+25.7 +16.6 57 +29 +30 душно 1009.2 997.5
18 17.06 СВ 3
{12}
10 км 8/5 1050 м
[Cu med, cong Ci sp]
+23.2 +18.8 76 +29 +29 душно 1009.8 998.1 +31.0
21 17.06 штиль 0
{15}
10 км в посл. час ливневой дождь {гроза} 8/4 1050 м
[Cu med, cong Ac und]
+19.5 +19.2 98 +22 +22 комфорт 1011.5 999.8
00 18.06 штиль 0
{15}
10 км {гроза, ливн. осадки} 4/4 1050 м
[Cu hum]
+18.5 +18.3 99 +19 +19 1011.6 999.9 0.8
03 18.06 штиль 0
{2}
10 км 8/4 1050 м
[Cu med, cong Ac und]
+18.4 +18.2 99 +19 +19 1011.6 999.8
06 18.06 Ю 2
{3}
10 км 4/4 450 м
[Cu hum]
+21.9 +19.6 87 +27 +32 душно 1012.3 1000.5 +18.3 0.8
09 18.06 С 6
{10}
10 км 5/5 1050 м
[Cu hum]
+28.7 +17.6 51 +33 +37 очень
душно
1012.1 1000.4
12 18.06 С 8
{12}
10 км 5/5 1050 м
[Cu hum]
+29.9 +18.2 49 +34 +36 очень
душно
1010.7 999.0
15 18.06 СВ 7
{12}
10 км гроза, ливневой дождь 8/8 750 м
[Cb cap]
+25.6 +16.8 58 +29 +30 душно 1011.4 999.6
18 18.06 С 5
{12}
10 км {гроза} 8/4 1050 м
[Cu med, cong Ac und]
+24.9 +18.5 68 +30 +30 душно 1011.4 999.7 +31.0 0.0
21 18.06 С 1
{8}
10 км 4/1 1050 м
[Cu hum Ci fib]
+22.5 +16.9 71 +27 +27 душно 1011.8 1000.2
00 19.06 С 3
{8}
10 км 5/1 1050 м
[Cu hum Ci fib]
+22.1 +19.0 83 +28 +28 душно 1011.6 1000.0
03 19.06 С 2
{5}
10 км 8/4 1050 м
[Cu hum Ci fib]
+22.0 +19.5 86 +28 +28 душно 1011.6 999.9
06 19.06 С 5
{6}
10 км 9/4 1050 м
[Cu med, cong Ac und]
+24.4 +19.1 72 +29 +30 душно 1011.8 1000.1 +21.6
09 19.06 СВ 4
{8}
10 км 9/5 1050 м
[Cu med, cong Ac und]
+27.0 +18.0 58 +32 +34 очень
душно
1011.5 999.8
12 19.06 ЮВ 3
{13}
10 км гроза, ливневой дождь 9/9 750 м
[Cb cap]
+21.6 +19.1 86 +27 +28 душно 1011.4 999.6 9
15 19.06 СЗ 4
{11}
10 км слаб. ливневой дождь, в посл. час гроза 8/8 750 м
[Cb cap]
+19.8 +18.1 90 +23 +23 комфорт 1011.4 999.6

 

Местоположение метеостанции Балыкесир (Турция): широта 39.62 долгота 27.92 высота над уровнем моря 102 м.

В архиве по умолчанию представлена погода в Балыкесире за последнюю неделю. Архивные данные за месяц целиком и за предыдущие месяцы, начиная с января 2011 года, Вы можете получить, выбрав интересующий диапазон дат из раскрывающегося списка и нажав кнопку "Ввод!".


*Определитесь, кто Вы:
робот инопланетянин человек

Внимание! Время в таблицах - всемирное. Для получения местного времени необходимо прибавить поправку, которая равна 2 ч.

Смотрите также архив погоды в соседних городах и на ближайших метеорологических станциях:

Погода в Бандырм (Турция) (78 км)
Погода в Акхисаре (Турция) (78 км)
Погода в Дикили (Турция) (110 км)
Погода в Айвалыке (Турция) (111 км)
Погода в Бурсе (Турция) (116 км)
Погода в Манисе (Турция) (119 км)
Погода в Митилини (Греция) (129 км)
Погода в Чанаккале (Турция) (142 км)
Погода в Измир / Сигли (Турция) (147 км)
Погода в Измире (Турция) (147 км)

Пояснения к столбцам:

Ветер - указаны скорость ветра в м/с - средняя за 10 мин, порывы в срок и между сроками (в фигурных скобках) и направление, откуда дует ветер: С - северный, СВ - северо-восточный, В - восточный, ЮВ - юго-восточный, Ю - южный, ЮЗ - юго-западный, З - западный, СЗ - северо-западный.
Видимость - горизонтальная дальность видимости в метрах или километрах. При видимости от 1 до 10 км при отсутствии осадков обычно наблюдается дымка, при ухудшении видимости до 1 км и менее - туман. В сухую погоду видимость может ухудшаться дымом, пылью или мглою.
Явления - указаны атмосферные явления, наблюдавшиеся в срок или в последний час перед сроком; фигурными скобками обозначены явления, наблюдавшиеся между сроками (за 1-3 часа до срока); квадратными скобками обозначены град или гололедные отложения с указанием их диаметра в мм.
Облачность - указаны через наклонную черту общая и нижняя облачность в баллах и высота нижней границы облаков в метрах; квадратными скобками обозначены формы облаков: Ci - перистые, Cs - перисто-слоистые, Cc - перисто-кучевые, Ac - высококучевые, As - высокослоистые, Sc - слоисто-кучевые, Ns - слоисто-дождевые, Cu - кучевые, Cb - кучево-дождевые. Подробнее классификацию облаков см. в Атласе облаков (PDF).
T - Температура воздуха - температура, измеренная на высоте 2 м над землей.
Td - Температура точки росы - температура, при понижении до которой содержащийся в воздухе водяной пар достигнет насыщения.
f - Относительная влажность воздуха - влажноcть воздуха, измеренная на высоте 2 м над землей.
Te - Эффективная температура - температура, которую ощущает одетый по сезону человек в тени. Характеристика душности погоды. При расчете учитывается влияние влажности воздуха и скорости ветра на теплоощущения человека.
Tes - Эффективная температура на солнце - температура, которую ощущает человек, с поправкой на солнечный нагрев. Характеристика знойности погоды. Зависит от высоты солнца над горизонтом, облачности и скорости ветра. Ночью, в пасмурную погоду, а также при ветре 12 м/с и более поправка равна нулю.
P - Атмосферное давление - приведенное к уровню моря атмосферное давление.
Po - Атмосферное давление - измеренное на уровне метеостанции атмосферное давление.
Tmin - Минимальная температура - минимум температуры воздуха на высоте 2 м над землей.
Tmax - Максимальная температура - максимум температуры воздуха на высоте 2 м над землей.
R - Количество осадков - Количество выпавших осадков за период времени, мм. При наведении курсора мыши на число - период времени, за который выпало указанное количество осадков.
R24 - Количество осадков - Количество выпавших осадков за 24 часа, мм.
S - Снежный покров - Высота снежного покрова, см. При наведении курсора мыши на число - состояние снежного покрова и степень покрытия местности в баллах.